Cupcake? Heresy? Pony? 4 stacks of plexi?

CerebralGasket

Senior Member
Joined
Sep 18, 2011
Messages
1,143
Reaction score
3,853
The Bat was attached to a 1970 SG Junior.
Was the thickest neck I have ever encountered.
Bought it because of the neck.
The novelty of it wore off after a while.
I prefer thick rounded necks.
But The Bat was ridiculous.

Traded it in for an SG Classic.
The SG Classics are keepers.
 
Last edited:

CerebralGasket

Senior Member
Joined
Sep 18, 2011
Messages
1,143
Reaction score
3,853
'58 Reissue LP Junior DC



2004 SG Classic



2006 SG Classic



It's not only the thickness, but also the amount of shoulder and how rounded it is that makes them all feel different. I'm not fussy about them too much and can switch between different necks without a problem as long as they are rounded and chunky. 60's Slim Taper and necks that are flat on the backside I tend to avoid.

None are better than the others, just different.
 
Last edited:

NorlinBlackBeauty

Senior Member
Joined
Oct 28, 2017
Messages
21,431
Reaction score
59,176
As is sometimes the case, the forecast mid 30s aren't likely happening. Might be all snow now. :/

Code:
EASTERN PENNSYLVANIA
 
CITY           SKY/WX    TMP DP  RH WIND       PRES   REMARKS
PHILADELPHIA   LGT SNOW  29  13  51 VRB3      30.29F                
NORTH PHILA    CLOUDY    27  16  63 E6        30.31F WCI  20        
BLUE BELL*     FLURRIES  25  18  76 SE7       30.27F WCI  17        
DOYLESTOWN     LGT SNOW  24  17  74 SE6       30.25F WCI  17        
QUAKERTOWN*    CLOUDY    23  18  80 VRB6G13   30.24  HAZE    WCI  16
PERKASIE*      LGT SNOW  23  19  86 SE5       30.25F WCI  17        
POTTSTOWN      LGT SNOW  22  20  92 VRB5      30.27F VSB 3/4 WCI  16
LANCASTER      LGT SNOW  27  22  81 SE7       30.20F WCI  19        
COATESVILLE    SNOW      25  23  93 VRB6      30.22F VSB 1/2 WCI  18
WEST CHESTER   LGT SNOW  27  23  86 SE6       30.24F VSB 3/4 WCI  20
READING        NOT AVBL                                             
ALLENTOWN      LGT SNOW  25  16  68 SE5       30.24F WCI  19        
QN CITY/ALNTWN LGT SNOW  27  19  74 S7        30.26F WCI  19        
MOUNT POCONO   LGT SNOW  15  12  88 S14       30.10F VSB 3/4 WCI   0
HAZLETON       LGT SNOW  21  16  79 SE9G16    30.11F WCI  11        
WILKES BARRE   LGT SNOW  24  16  71 VRB7      30.12F WCI  16
Looks like Dav will clear out soon. A lot of precip is still headed my way, moving almost due east.

1579376747452.png
 




Top